Location: Unspecified
(48.7670°N, 0.0000°E)
Time: 15:46:48
(UTC+00:00)

Altair - Pass Details

Date: 28 June 2019
Orbit: 1501 x 1683 km, 47.2° (Epoch: 21 July)

Event Time Altitude Azimuth Distance (km) Brightness Sun altitude
Rises 15:57:52 0° 183° (S) 4,638 10.1 37.7°
Reaches altitude 10° 16:02:08 10° 165° (SSE) 3,681 9.5 37.0°
Maximum altitude 16:07:47 18° 127° (SE) 3,132 8.9 36.1°
Drops below altitude 10° 16:13:31 10° 89° (E) 3,768 9.1 35.2°
Sets 16:17:55 0° 72° (ENE) 4,792 9.6 34.5°
